User: anonymous   Login
Location: Holyhead Bay
(53.3667°N, 4.6667°W)
Time: 08:33:49
(UTC+00:00)
Language:

FENGYUN 1C DEB - Orbit

View from above orbital plane
View from above orbital plane
View from above satellite
View from above satellite

Ground track
Ground track

The orbit data is extracted from the following two-line orbital elements,

1 31228U 99025BLJ 21171.34913264  .00000231  00000-0  10184-3 0  9998
2 31228  99.0245   9.7813 0085693 189.5572 347.1934 14.30894256741312
Epoch (UTC): 20 June 2021 08:22:45
Eccentricity: 0.0085693
inclination: 99.0245°
perigee height: 727 km
apogee height: 850 km
right ascension of ascending node: 9.7813°
argument of perigee: 189.5572°
revolutions per day: 14.30894256
mean anomaly at epoch: 347.1934°
orbit number at epoch: 74131

The dashed part of the orbit path shows where the satellite is in the earth's shadow,  

DLR